Location: Pedholt
(56.0260°N, 10.2097°E)
Time: 03:01:53
(UTC+00:00)

Transit 2A Rocket - Pass Details

Date: 29 July 2021
Orbit: 586 x 916 km, 66.7° (Epoch: 21 September)

Event Time Altitude Azimuth Distance (km) Brightness Sun altitude
Rises 15:59:36 0° 245° (WSW) 2,908 9.1 27.3°
Reaches altitude 10° 16:01:51 10° 251° (WSW) 2,042 8.9 27.0°
Maximum altitude 16:06:19 48° 326° (NW) 896 6.1 26.4°
Drops below altitude 10° 16:11:14 10° 41° (NE) 2,243 7.1 25.7°
Sets 16:13:49 0° 47° (NE) 3,228 7.8 25.3°
